Weather History for KVCB - December, 2013

Change the Weather History Date:

Saturday, December 28, 2013

  Actual Average Record
Temperature  
Mean Temperature 50 °F -  
Max Temperature 72 °F 54 °F 75 °F (1975)
Min Temperature 28 °F 35 °F 22 °F (1956)
Degree Days  
Heating Degree Days 15    
Moisture  
Dew Point 23 °F    
Average Humidity 44    
Maximum Humidity 92    
Minimum Humidity 14    
Precipitation  
Precipitation 0.00 in - - ()
Sea Level Pressure  
Sea Level Pressure 30.10 in    
Wind  
Wind Speed 4 mph (North)    
Max Wind Speed 16 mph    
Max Gust Speed 26 mph    
Visibility 10 miles    
Events      
Averages and records for this station are not official NWS values.
T = Trace of Precipitation, MM = Missing Value Source: NWS Daily Summary

Daily Weather History Graph

Daily Weather History Graph

Search for Another Location

Airport or City:

Trip Planner

Search our weather history database for the weather conditions in past years. The results will help you decide how hot, cold, wet, or windy it might be!

Date:

Astronomy

Dec. 28, 2013 Rise Set
Actual Time 7:24 AM PST 4:55 PM PST
Civil Twilight 6:54 AM PST 5:24 PM PST
Nautical Twilight 6:21 AM PST 5:58 PM PST
Astronomical Twilight 5:49 AM PST 6:30 PM PST
Moon 3:08 AM PST (12/28) 1:48 PM PST (12/28)
Length of Visible Light 10h 30m
Length of Day
9h 30m
Waning Crescent, 18% of the Moon is Illuminated
Dec 28
Waning Crescent
Jan 1
New
Jan 7
First Quarter
Jan 15
Full
Jan 23
Last Quarter

Hourly Weather History & Observations

Time (PST) Temp. Windchill Dew Point Humidity Pressure Visibility Wind Dir Wind Speed Gust Speed Precip Events Conditions
12:53 AM 32.0 °F - 27.0 °F 82% 30.14 in 10.0 mi Calm Calm - N/A   Clear
1:53 AM 35.1 °F 32.2 °F 28.0 °F 76% 30.16 in 10.0 mi NE 3.5 mph - N/A   Clear
2:53 AM 30.0 °F - 26.1 °F 85% 30.15 in 10.0 mi Calm Calm - N/A   Clear
3:53 AM 28.9 °F - 26.1 °F 89% 30.15 in 10.0 mi Calm Calm - N/A   Clear
4:53 AM 28.9 °F - 26.1 °F 89% 30.14 in 10.0 mi Calm Calm - N/A   Clear
5:53 AM 28.0 °F - 26.1 °F 92% 30.14 in 10.0 mi Calm Calm - N/A   Clear
6:53 AM 28.0 °F - 25.0 °F 88% 30.15 in 10.0 mi Calm Calm - N/A   Clear
7:53 AM 28.9 °F - 26.1 °F 89% 30.16 in 10.0 mi Calm Calm - N/A   Clear
8:53 AM 42.1 °F - 33.1 °F 70% 30.17 in 10.0 mi Calm Calm - N/A   Clear
9:53 AM 48.0 °F - 30.0 °F 50% 30.15 in 10.0 mi Calm Calm - N/A   Clear
10:53 AM 55.9 °F - 28.9 °F 36% 30.14 in 10.0 mi Calm Calm - N/A   Clear
11:53 AM 68.0 °F - 21.9 °F 17% 30.09 in 10.0 mi North 8.1 mph - N/A   Clear
12:53 PM 70.0 °F - 21.9 °F 16% 30.06 in 10.0 mi North 10.4 mph 19.6 mph N/A   Clear
1:53 PM 72.0 °F - 19.9 °F 14% 30.04 in 10.0 mi North 10.4 mph 23.0 mph N/A   Clear
2:53 PM 72.0 °F - 19.9 °F 14% 30.04 in 10.0 mi NNW 13.8 mph 20.7 mph N/A   Clear
3:53 PM 69.1 °F - 21.0 °F 16% 30.04 in 10.0 mi NNW 10.4 mph 21.9 mph N/A   Clear
4:53 PM 66.0 °F - 23.0 °F 20% 30.03 in 10.0 mi North 10.4 mph - N/A   Clear
5:53 PM 63.0 °F - 24.1 °F 23% 30.04 in 10.0 mi NNW 10.4 mph - N/A   Clear
6:53 PM 64.0 °F - 19.9 °F 18% 30.05 in 10.0 mi North 13.8 mph 20.7 mph N/A   Clear
7:53 PM 63.0 °F - 18.0 °F 18% 30.06 in 10.0 mi NNW 13.8 mph 20.7 mph N/A   Clear
8:53 PM 64.0 °F - 18.0 °F 17% 30.07 in 10.0 mi NNW 12.7 mph 23.0 mph N/A   Clear
9:53 PM 63.0 °F - 16.0 °F 16% 30.09 in 10.0 mi North 15.0 mph 26.5 mph N/A   Clear
10:53 PM 62.1 °F - 15.1 °F 16% 30.09 in 10.0 mi North 16.1 mph 25.3 mph N/A   Clear
11:53 PM 61.0 °F - 15.1 °F 17% 30.09 in 10.0 mi North 11.5 mph 21.9 mph N/A   Clear